sat.trackr.live / text

‹ back to catalog

GNOMES-4

NORAD 58462 · 2023-185A

PAYLOAD ACTIVE UNKNOWN

§ Identity

Operator
Country
US
Launch date
2023-12-01
Launch site
AFWTR
Launch vehicle
Mass (kg)
RCS (m²)

External: N2YO · Heavens-Above · Gunter

§ Orbital elements

Epoch: 2026-09-21T22:39:14.916096Z

Period
95.92 min
Inclination
97.4725°
Eccentricity
0.0010655
Mean motion
15.01298442 rev/d
Perigee alt
555.5 km
Apogee alt
570.3 km
Semi-major
6,941.0 km
B*
1.3740e-4
RAAN
318.5206°
Arg perigee
5.9682°
Mean anomaly
354.1668°
Rev number
15,380

§ Raw data

GNOMES-41 58462U 23185A   26264.94392264  .00001712  00000+0  13740-3 0  99912 58462  97.4725 318.5206 0010655   5.9682 354.1668 15.01298442153809

JSON: /api/v1/satellites/58462 · /tle

For live sub-satellite position, see the globe view (requires WebGL).

§ Visibility from observer

Set your observer location to see the next 7 days of passes ≥ 10°. The values pass through the URL so the page stays shareable.

No JS? Fill the form by hand. The geolocation button needs JavaScript.